Location: Millers Ferry
(32.0990°N, 87.3680°W)
Time: 09:24:30
(UTC-05:00)

CSL-04 Rocket - Visible Passes

Search period start: 30 October 2014 00:00
Search period end: 08 November 2014 23:00
Orbit: 807 x 860 km, 98.9° (Epoch: 29 October)

Date Brightness Start Highest point End Pass type
(mag) Time Alt. Az. Time Alt. Az. Time Alt. Az.
30 Oct 6.6 03:50:57 10° ENE 03:52:46 12° E 03:54:35 10° ESE visible
30 Oct 3.6 05:27:58 10° N 05:33:29 70° WNW 05:38:58 10° SSW visible
31 Oct 3.7 05:11:11 10° NNE 05:16:45 81° ESE 05:22:16 10° S visible
01 Nov 4.3 04:54:32 10° NNE 04:59:59 56° E 05:05:22 10° S visible
01 Nov 5.1 06:36:27 10° NNW 06:39:46 16° WNW 06:43:05 10° WSW visible
02 Nov 5.0 03:38:03 10° NNE 03:43:11 38° E 03:48:14 10° SSE visible
02 Nov 4.7 05:18:55 10° NNW 05:23:12 24° WNW 05:27:28 10° WSW visible
03 Nov 5.7 03:21:47 10° NE 03:26:20 26° E 03:30:50 10° SSE visible
03 Nov 4.3 05:01:41 10° N 05:06:36 34° WNW 05:11:28 10° SW visible
04 Nov 6.2 03:05:51 10° NE 03:09:27 18° E 03:13:00 10° SE visible
04 Nov 3.9 04:44:38 10° N 04:49:57 48° WNW 04:55:12 10° SW visible
05 Nov 6.6 02:50:53 10° ENE 02:52:31 11° E 02:54:09 10° ESE visible
05 Nov 3.6 04:27:44 10° N 04:33:15 71° WNW 04:38:42 10° SSW visible
06 Nov 3.7 04:10:57 10° NNE 04:16:31 80° ESE 04:22:00 10° S visible
07 Nov 4.3 03:54:19 10° NNE 03:59:45 55° E 04:05:05 10° S visible
07 Nov 5.1 05:36:11 10° NNW 05:39:32 17° WNW 05:42:52 10° WSW visible
08 Nov 5.1 03:37:50 10° NNE 03:42:56 37° E 03:47:56 10° SSE visible
08 Nov 4.7 05:18:40 10° NNW 05:22:58 24° WNW 05:27:14 10° WSW visible
